Location: Kaarina
(60.4167°N, 22.4167°E)
Time: 02:25:38
(UTC+03:00)

Cosmos 1980 Rocket - Pass Details

Date: 24 August 2019
Orbit: 829 x 850 km, 71.0° (Epoch: 22 September)

Event Time Altitude Azimuth Distance (km) Brightness Sun altitude
Rises 23:10:19 0° 320° (NW) 3,394 7.4 -13.2°
Reaches altitude 10° 23:12:56 10° 312° (NW) 2,459 6.0 -13.4°
Maximum altitude 23:17:57 34° 249° (WSW) 1,346 3.4 -13.7°
Enters shadow 23:22:38 12° 187° (S) 2,345 4.1 -14.1°
